Weather History for Clarksburg, WV

Change the Weather History Date:

Monday, June 17, 2013

  Actual Average Record
Temperature  
Mean Temperature 74 °F -  
Max Temperature 82 °F 83 °F 96 °F (1952)
Min Temperature 66 °F 58 °F 41 °F (1964)
Cooling Degree Days 8    
Growing Degree Days 24 (Base 50)    
Moisture  
Dew Point 65 °F    
Average Humidity 77    
Maximum Humidity 87    
Minimum Humidity 58    
Precipitation  
Precipitation 0.00 in - - ()
Sea Level Pressure  
Sea Level Pressure 29.95 in    
Wind  
Wind Speed 4 mph (WSW)    
Max Wind Speed 8 mph    
Max Gust Speed -    
Visibility 9 miles    
Events      
Averages and records for this station are not official NWS values.
T = Trace of Precipitation, MM = Missing Value Source: NWS Daily Summary

Daily Weather History Graph

Daily Weather History Graph

Search for Another Location

Airport:

Trip Planner

Search our weather history database for the weather conditions in past years. The results will help you decide how hot, cold, wet, or windy it might be!

Date:

Astronomy

Jun. 17, 2013 Rise Set
Actual Time 5:53 AM EDT 8:49 PM EDT
Civil Twilight 5:21 AM EDT 9:22 PM EDT
Nautical Twilight 4:40 AM EDT 10:03 PM EDT
Astronomical Twilight 3:53 AM EDT 10:50 PM EDT
Moon 2:28 PM EDT (6/17) 1:26 AM EDT (6/17)
Length of Visible Light 16h 00m
Length of Day
14h 56m
First Quarter, 60% of the Moon is Illuminated
Jun 17
First Quarter
Jun 23
Full
Jun 30
Last Quarter
Jul 8
New
Jul 15
First Quarter

Hourly Weather History & Observations

Time (EDT) Temp. Heat Index Dew Point Humidity Pressure Visibility Wind Dir Wind Speed Gust Speed Precip Events Conditions
12:53 AM 66.9 °F - 63.0 °F 87% 29.97 in 10.0 mi SSW 3.5 mph - N/A   Overcast
1:53 AM 68.0 °F - 64.0 °F 87% 29.96 in 10.0 mi Calm Calm - N/A   Overcast
2:53 AM 68.0 °F - 64.0 °F 87% 29.96 in 10.0 mi SSW 3.5 mph - N/A   Overcast
3:53 AM 68.0 °F - 64.0 °F 87% 29.96 in 10.0 mi SW 5.8 mph - N/A   Overcast
4:53 AM 68.0 °F - 64.0 °F 87% 29.96 in 9.0 mi SW 5.8 mph - N/A   Overcast
5:53 AM 68.0 °F - 64.0 °F 87% 29.96 in 9.0 mi SW 5.8 mph - N/A   Overcast
6:53 AM 68.0 °F - 64.0 °F 87% 29.97 in 8.0 mi SW 5.8 mph - N/A   Overcast
7:53 AM 69.1 °F - 64.0 °F 84% 29.98 in 8.0 mi WSW 5.8 mph - N/A   Overcast
8:53 AM 69.1 °F - 64.0 °F 84% 29.98 in 8.0 mi WSW 3.5 mph - N/A   Overcast
9:44 AM 69.8 °F - 64.4 °F 83% 30.01 in 7.0 mi WNW 4.6 mph - N/A   Overcast
9:53 AM 70.0 °F - 64.0 °F 81% 29.98 in 8.0 mi WSW 4.6 mph - N/A   Overcast
10:37 AM 71.6 °F - 64.4 °F 78% 30.01 in 7.0 mi SSW 6.9 mph - N/A   Overcast
10:53 AM 72.0 °F - 64.9 °F 78% 29.97 in 7.0 mi SW 8.1 mph - N/A   Overcast
11:53 AM 73.9 °F - 64.9 °F 73% 29.98 in 9.0 mi Variable 3.5 mph - N/A   Mostly Cloudy
12:53 PM 75.9 °F - 64.9 °F 69% 29.98 in 10.0 mi SSW 6.9 mph - N/A   Overcast
1:53 PM 75.9 °F - 64.9 °F 69% 29.97 in 10.0 mi West 3.5 mph - N/A   Mostly Cloudy
2:00 PM 78.8 °F - 64.4 °F 61% 30.01 in 10.0 mi Calm Calm - N/A   Scattered Clouds
2:53 PM 79.0 °F - 64.0 °F 60% 29.95 in 10.0 mi WNW 6.9 mph - N/A   Scattered Clouds
3:53 PM 79.0 °F - 64.9 °F 62% 29.92 in 10.0 mi SW 3.5 mph - N/A   Scattered Clouds
4:53 PM 81.0 °F 82.7 °F 64.9 °F 58% 29.91 in 10.0 mi Variable 3.5 mph - N/A   Mostly Cloudy
5:53 PM 81.0 °F 82.7 °F 64.9 °F 58% 29.89 in 10.0 mi NNW 3.5 mph - N/A   Scattered Clouds
6:53 PM 80.1 °F 81.9 °F 64.9 °F 60% 29.90 in 10.0 mi Variable 3.5 mph - N/A   Clear
7:53 PM 75.9 °F - 66.0 °F 71% 29.91 in 10.0 mi Calm Calm - N/A   Partly Cloudy
8:53 PM 73.9 °F - 64.9 °F 73% 29.91 in 10.0 mi Calm Calm - N/A   Clear
9:53 PM 71.1 °F - 66.0 °F 84% 29.91 in 10.0 mi NNE 4.6 mph - N/A   Clear
10:53 PM 71.1 °F - 66.0 °F 84% 29.91 in 10.0 mi Calm Calm - N/A   Clear
11:53 PM 69.1 °F - 64.9 °F 87% 29.92 in 8.0 mi Calm Calm - N/A   Clear